| time (UTC) | temp C | wind direction | speed KPH | gust KPH | rain 1hr cm | rain 24hr cm | rain mn cm | humidity % | barometer mb |
| 20260906231550 | 27 | 0 | 0.0 | 0.0 | 0.00 | 0.03 | 0.00 | 83 | 1011.7 |
| 20260906231022 | 27 | 0 | 0.0 | 0.0 | 0.00 | 0.03 | 0.00 | 82 | 1011.5 |
| 20260906230527 | 27 | 0 | 0.0 | 0.0 | 0.00 | 0.03 | 0.00 | 82 | 1011.3 |
| 20260906230056 | 27 | 0 | 0.0 | 0.0 | 0.00 | 0.03 | 0.00 | 82 | 1011.4 |
| 20260906225524 | 27 | 0 | 0.0 | 0.0 | 0.00 | 0.05 | 0.00 | 82 | 1011.1 |
| 20260906225024 | 27 | 0 | 0.0 | 0.0 | 0.00 | 0.05 | 0.00 | 81 | 1011.1 |
| 20260906224544 | 28 | 0 | 0.0 | 0.0 | 0.00 | 0.05 | 0.00 | 82 | 1011.2 |
| 20260906224019 | 28 | 0 | 0.0 | 0.0 | 0.00 | 0.05 | 0.00 | 81 | 1011.5 |
| 20260906223519 | 28 | 0 | 0.0 | 0.0 | 0.00 | 0.05 | 0.00 | 81 | 1011.6 |
| 20260906223053 | 28 | 0 | 0.0 | 0.0 | 0.00 | 0.05 | 0.00 | 80 | 1011.3 |
| 20260906222525 | 28 | 0 | 0.0 | 0.0 | 0.00 | 0.05 | 0.00 | 80 | 1011.3 |
| 20260906222024 | 28 | 0 | 0.0 | 0.0 | 0.00 | 0.05 | 0.00 | 80 | 1011.7 |
| 20260906221544 | 28 | 0 | 0.0 | 0.0 | 0.00 | 0.05 | 0.00 | 80 | 1011.8 |
| 20260906221024 | 28 | 0 | 0.0 | 0.0 | 0.00 | 0.05 | 0.00 | 80 | 1012.0 |
| 20260906220524 | 28 | 0 | 0.0 | 0.0 | 0.00 | 0.05 | 0.00 | 79 | 1012.0 |
| 20260906220045 | 28 | 0 | 0.0 | 0.0 | 0.00 | 0.05 | 0.00 | 79 | 1012.0 |
| 20260906215521 | 28 | 0 | 0.0 | 0.0 | 0.00 | 0.46 | 0.00 | 79 | 1011.3 |
| 20260906215024 | 28 | 0 | 0.0 | 0.0 | 0.00 | 0.46 | 0.00 | 79 | 1010.2 |
| 20260906214545 | 28 | 0 | 0.0 | 0.0 | 0.00 | 0.46 | 0.00 | 78 | 1010.4 |
| 20260906214021 | 28 | 0 | 0.0 | 0.0 | 0.00 | 0.46 | 0.00 | 76 | 1010.7 |
| 20260906213525 | 28 | 0 | 0.0 | 0.0 | 0.00 | 0.46 | 0.00 | 76 | 1010.6 |
| 20260906213048 | 28 | 0 | 0.0 | 0.0 | 0.00 | 0.46 | 0.00 | 76 | 1010.7 |
| 20260906212521 | 28 | 0 | 0.0 | 0.0 | 0.00 | 0.46 | 0.00 | 74 | 1010.8 |
| 20260906212025 | 28 | 0 | 0.0 | 0.0 | 0.00 | 0.46 | 0.00 | 73 | 1011.0 |
| 20260906211543 | 28 | 0 | 0.0 | 0.0 | 0.00 | 0.46 | 0.00 | 73 | 1010.9 |
| 20260906211021 | 28 | 0 | 0.0 | 0.0 | 0.00 | 0.46 | 0.00 | 72 | 1010.7 |
| 20260906210522 | 28 | 0 | 0.0 | 0.0 | 0.00 | 0.46 | 0.00 | 70 | 1010.7 |
| 20260906210046 | 28 | 0 | 0.0 | 0.0 | 0.00 | 0.46 | 0.00 | 68 | 1010.4 |
| 20260906205525 | 28 | 0 | 0.0 | 0.0 | 0.00 | 0.46 | 0.00 | 68 | 1010.3 |
| 20260906205021 | 28 | 0 | 0.0 | 0.0 | 0.00 | 0.46 | 0.00 | 69 | 1010.3 |
| 20260906204544 | 28 | 0 | 0.0 | 0.0 | 0.00 | 0.46 | 0.00 | 68 | 1010.3 |
| 20260906204021 | 28 | 0 | 0.0 | 0.0 | 0.00 | 0.46 | 0.00 | 70 | 1010.2 |
| 20260906203521 | 28 | 0 | 0.0 | 0.0 | 0.00 | 0.46 | 0.00 | 71 | 1010.5 |
| 20260906203042 | 28 | 0 | 0.0 | 0.0 | 0.00 | 0.46 | 0.00 | 67 | 1010.5 |
| 20260906202524 | 31 | 0 | 0.0 | 0.0 | 0.00 | 0.46 | 0.00 | 62 | 1010.5 |
| 20260906202024 | 31 | 0 | 0.0 | 0.0 | 0.00 | 0.46 | 0.00 | 58 | 1010.4 |
| 20260906201613 | 32 | 0 | 0.0 | 0.0 | 0.00 | 0.46 | 0.00 | 59 | 1010.6 |
| 20260906201024 | 33 | 0 | 0.0 | 0.0 | 0.00 | 0.46 | 0.00 | 59 | 1010.4 |
| 20260906200527 | 33 | 0 | 0.0 | 0.0 | 0.00 | 0.46 | 0.00 | 60 | 1010.2 |
| 20260906200045 | 33 | 0 | 0.0 | 0.0 | 0.00 | 0.46 | 0.00 | 57 | 1010.2 |
| 20260906195522 | 34 | 0 | 0.0 | 0.0 | 0.00 | 0.46 | 0.00 | 58 | 1010.2 |
| 20260906195021 | 34 | 0 | 0.0 | 0.0 | 0.00 | 0.46 | 0.00 | 55 | 1010.0 |
| 20260906194554 | 33 | 0 | 0.0 | 0.0 | 0.00 | 0.46 | 0.00 | 58 | 1010.0 |
| 20260906194023 | 32 | 0 | 0.0 | 0.0 | 0.00 | 0.46 | 0.00 | 59 | 1010.2 |
| 20260906193521 | 33 | 0 | 0.0 | 0.0 | 0.00 | 0.46 | 0.00 | 56 | 1010.3 |
| 20260906193046 | 33 | 0 | 0.0 | 0.0 | 0.00 | 0.46 | 0.00 | 58 | 1010.3 |
| 20260906192523 | 33 | 0 | 0.0 | 0.0 | 0.00 | 0.46 | 0.00 | 57 | 1010.3 |
| 20260906192024 | 33 | 0 | 0.0 | 0.0 | 0.00 | 0.46 | 0.00 | 56 | 1010.4 |
| 20260906191542 | 32 | 0 | 0.0 | 0.0 | 0.00 | 0.46 | 0.00 | 57 | 1010.6 |
| 20260906191020 | 33 | 0 | 0.0 | 0.0 | 0.00 | 0.46 | 0.00 | 55 | 1010.6 |
| 20260906190518 | 34 | 0 | 0.0 | 0.0 | 0.00 | 0.46 | 0.00 | 57 | 1010.7 |
| 20260906190044 | 33 | 0 | 0.0 | 0.0 | 0.00 | 0.46 | 0.00 | 56 | 1010.8 |
| 20260906185525 | 33 | 0 | 0.0 | 0.0 | 0.00 | 0.46 | 0.00 | 55 | 1010.8 |
| 20260906185024 | 34 | 0 | 0.0 | 0.0 | 0.00 | 0.46 | 0.00 | 51 | 1010.8 |
| 20260906184542 | 34 | 0 | 0.0 | 0.0 | 0.00 | 0.46 | 0.00 | 52 | 1010.9 |
| 20260906184024 | 33 | 0 | 0.0 | 0.0 | 0.00 | 0.46 | 0.00 | 58 | 1011.0 |
| 20260906183524 | 33 | 0 | 0.0 | 0.0 | 0.00 | 0.46 | 0.00 | 57 | 1011.1 |
| 20260906183054 | 33 | 0 | 0.0 | 0.0 | 0.00 | 0.46 | 0.00 | 55 | 1011.2 |
| 20260906182523 | 33 | 0 | 0.0 | 0.0 | 0.00 | 0.46 | 0.00 | 53 | 1011.3 |
| 20260906182018 | 33 | 0 | 0.0 | 0.0 | 0.00 | 0.46 | 0.00 | 57 | 1011.4 |
| 20260906181549 | 33 | 0 | 0.0 | 0.0 | 0.00 | 0.46 | 0.00 | 55 | 1011.5 |
| 20260906181024 | 33 | 0 | 0.0 | 0.0 | 0.00 | 0.46 | 0.00 | 56 | 1011.5 |
| 20260906180525 | 33 | 0 | 0.0 | 0.0 | 0.00 | 0.46 | 0.00 | 56 | 1011.6 |
| 20260906180043 | 33 | 0 | 0.0 | 0.0 | 0.00 | 0.46 | 0.00 | 59 | 1011.6 |
| 20260906175526 | 33 | 0 | 0.0 | 0.0 | 0.00 | 0.46 | 0.00 | 56 | 1011.6 |
| 20260906175026 | 33 | 0 | 0.0 | 0.0 | 0.00 | 0.46 | 0.00 | 57 | 1011.8 |
| 20260906174549 | 33 | 0 | 0.0 | 0.0 | 0.00 | 0.46 | 0.00 | 55 | 1011.8 |
| 20260906174023 | 33 | 0 | 0.0 | 0.0 | 0.00 | 0.46 | 0.00 | 61 | 1011.9 |
| 20260906173524 | 33 | 0 | 0.0 | 0.0 | 0.00 | 0.46 | 0.00 | 59 | 1011.9 |
| 20260906173045 | 33 | 0 | 0.0 | 0.0 | 0.00 | 0.46 | 0.00 | 60 | 1011.9 |
| 20260906172525 | 33 | 0 | 0.0 | 0.0 | 0.00 | 0.46 | 0.00 | 61 | 1012.0 |
| 20260906172023 | 32 | 0 | 0.0 | 0.0 | 0.00 | 0.46 | 0.00 | 60 | 1012.0 |
| 20260906171543 | 32 | 0 | 0.0 | 0.0 | 0.00 | 0.46 | 0.00 | 63 | 1012.0 |
| 20260906171024 | 32 | 0 | 0.0 | 0.0 | 0.00 | 0.46 | 0.00 | 60 | 1012.1 |
| 20260906170525 | 32 | 0 | 0.0 | 0.0 | 0.00 | 0.46 | 0.00 | 58 | 1012.1 |
| 20260906170044 | 32 | 0 | 0.0 | 0.0 | 0.00 | 0.46 | 0.00 | 59 | 1012.2 |
| 20260906165524 | 32 | 0 | 0.0 | 0.0 | 0.00 | 0.46 | 0.00 | 60 | 1012.3 |
| 20260906165027 | 32 | 0 | 0.0 | 0.0 | 0.00 | 0.46 | 0.00 | 62 | 1012.3 |
| 20260906164541 | 32 | 0 | 0.0 | 0.0 | 0.00 | 0.46 | 0.00 | 61 | 1012.3 |
| 20260906164024 | 32 | 0 | 0.0 | 0.0 | 0.00 | 0.46 | 0.00 | 59 | 1012.3 |
| 20260906163519 | 32 | 0 | 0.0 | 0.0 | 0.00 | 0.46 | 0.00 | 61 | 1012.4 |
| 20260906163050 | 32 | 0 | 0.0 | 0.0 | 0.00 | 0.46 | 0.00 | 62 | 1012.5 |
| 20260906162523 | 32 | 0 | 0.0 | 0.0 | 0.00 | 0.46 | 0.00 | 59 | 1012.6 |
| 20260906162022 | 32 | 0 | 0.0 | 0.0 | 0.00 | 0.46 | 0.00 | 63 | 1012.7 |
| 20260906161548 | 32 | 0 | 0.0 | 0.0 | 0.00 | 0.46 | 0.00 | 62 | 1012.6 |
| 20260906161023 | 32 | 0 | 0.0 | 0.0 | 0.00 | 0.46 | 0.00 | 64 | 1012.6 |
| 20260906160523 | 32 | 0 | 0.0 | 0.0 | 0.00 | 0.46 | 0.00 | 61 | 1012.7 |
| 20260906160043 | 32 | 0 | 0.0 | 0.0 | 0.00 | 0.46 | 0.00 | 63 | 1012.6 |
| 20260906155524 | 32 | 0 | 0.0 | 0.0 | 0.00 | 0.46 | 0.00 | 62 | 1012.7 |
| 20260906155021 | 32 | 0 | 0.0 | 0.0 | 0.00 | 0.46 | 0.00 | 63 | 1012.8 |
| 20260906154546 | 31 | 0 | 0.0 | 0.0 | 0.00 | 0.46 | 0.00 | 63 | 1012.9 |
| 20260906154024 | 31 | 0 | 0.0 | 0.0 | 0.00 | 0.46 | 0.00 | 66 | 1012.9 |
| 20260906153523 | 31 | 0 | 0.0 | 0.0 | 0.00 | 0.46 | 0.00 | 65 | 1013.0 |
| 20260906153052 | 31 | 0 | 0.0 | 0.0 | 0.00 | 0.46 | 0.00 | 65 | 1012.9 |
| 20260906152521 | 31 | 0 | 0.0 | 0.0 | 0.00 | 0.46 | 0.00 | 66 | 1012.9 |
| 20260906152027 | 31 | 0 | 0.0 | 0.0 | 0.00 | 0.46 | 0.00 | 65 | 1012.9 |
| 20260906151543 | 31 | 0 | 0.0 | 0.0 | 0.00 | 0.46 | 0.00 | 68 | 1012.9 |
| 20260906151031 | 30 | 0 | 0.0 | 0.0 | 0.00 | 0.46 | 0.00 | 70 | 1012.9 |
| 20260906150524 | 30 | 0 | 0.0 | 0.0 | 0.00 | 0.46 | 0.00 | 68 | 1012.9 |
| 20260906150045 | 30 | 0 | 0.0 | 0.0 | 0.00 | 0.46 | 0.00 | 73 | 1012.9 |
| 20260906145521 | 30 | 0 | 0.0 | 0.0 | 0.00 | 0.46 | 0.00 | 73 | 1012.9 |
| 20260906145021 | 30 | 0 | 0.0 | 0.0 | 0.00 | 0.46 | 0.00 | 70 | 1012.8 |
| 20260906144543 | 30 | 0 | 0.0 | 0.0 | 0.00 | 0.46 | 0.00 | 73 | 1012.8 |
| 20260906144021 | 30 | 0 | 0.0 | 0.0 | 0.00 | 0.46 | 0.00 | 74 | 1012.8 |
| 20260906143521 | 29 | 0 | 0.0 | 0.0 | 0.00 | 0.46 | 0.00 | 76 | 1012.8 |
| 20260906143042 | 29 | 0 | 0.0 | 0.0 | 0.00 | 0.46 | 0.00 | 79 | 1012.9 |
| 20260906142525 | 29 | 0 | 0.0 | 0.0 | 0.00 | 0.46 | 0.00 | 76 | 1012.9 |
| 20260906142030 | 28 | 0 | 0.0 | 0.0 | 0.00 | 0.46 | 0.00 | 82 | 1012.9 |
| 20260906141541 | 28 | 0 | 0.0 | 0.0 | 0.00 | 0.46 | 0.00 | 81 | 1012.8 |
| 20260906141024 | 28 | 0 | 0.0 | 0.0 | 0.00 | 0.46 | 0.00 | 79 | 1012.8 |
| 20260906140521 | 28 | 0 | 0.0 | 0.0 | 0.00 | 0.46 | 0.00 | 84 | 1012.9 |
| 20260906140049 | 28 | 0 | 0.0 | 0.0 | 0.00 | 0.46 | 0.00 | 85 | 1012.9 |
| 20260906135521 | 27 | 0 | 0.0 | 0.0 | 0.00 | 0.46 | 0.00 | 84 | 1012.8 |
| 20260906135022 | 27 | 0 | 0.0 | 0.0 | 0.00 | 0.46 | 0.00 | 88 | 1012.8 |
| 20260906134543 | 26 | 0 | 0.0 | 0.0 | 0.00 | 0.46 | 0.00 | 88 | 1012.8 |
| 20260906134022 | 26 | 0 | 0.0 | 0.0 | 0.00 | 0.46 | 0.00 | 91 | 1012.8 |
| 20260906133521 | 26 | 0 | 0.0 | 0.0 | 0.00 | 0.46 | 0.00 | 89 | 1012.8 |
| 20260906133051 | 25 | 0 | 0.0 | 0.0 | 0.00 | 0.46 | 0.00 | 90 | 1012.7 |
| 20260906132520 | 25 | 0 | 0.0 | 0.0 | 0.00 | 0.46 | 0.00 | 91 | 1012.7 |
| 20260906132019 | 25 | 0 | 0.0 | 0.0 | 0.00 | 0.46 | 0.00 | 93 | 1012.7 |
| 20260906131542 | 25 | 0 | 0.0 | 0.0 | 0.00 | 0.46 | 0.00 | 94 | 1012.7 |
| 20260906131024 | 24 | 0 | 0.0 | 0.0 | 0.00 | 0.46 | 0.00 | 96 | 1012.7 |
| 20260906130518 | 24 | 0 | 0.0 | 0.0 | 0.00 | 0.46 | 0.00 | 96 | 1012.7 |
| 20260906130050 | 24 | 0 | 0.0 | 0.0 | 0.00 | 0.46 | 0.00 | 97 | 1012.7 |
| 20260906125521 | 23 | 0 | 0.0 | 0.0 | 0.00 | 0.46 | 0.00 | 97 | 1012.7 |
| 20260906125019 | 23 | 0 | 0.0 | 0.0 | 0.00 | 0.46 | 0.00 | 98 | 1012.7 |
| 20260906124543 | 23 | 0 | 0.0 | 0.0 | 0.00 | 0.46 | 0.00 | 98 | 1012.7 |
| 20260906124026 | 23 | 0 | 0.0 | 0.0 | 0.00 | 0.46 | 0.00 | 98 | 1012.7 |
| 20260906123521 | 22 | 0 | 0.0 | 0.0 | 0.00 | 0.46 | 0.00 | 98 | 1012.6 |
| 20260906123046 | 22 | 0 | 0.0 | 0.0 | 0.00 | 0.46 | 0.00 | 98 | 1012.6 |
| 20260906122526 | 22 | 0 | 0.0 | 0.0 | 0.00 | 0.46 | 0.00 | 98 | 1012.6 |
| 20260906122024 | 21 | 0 | 0.0 | 0.0 | 0.00 | 0.46 | 0.00 | 97 | 1012.5 |
| 20260906121546 | 21 | 0 | 0.0 | 0.0 | 0.00 | 0.46 | 0.00 | 97 | 1012.4 |
| 20260906121023 | 21 | 0 | 0.0 | 0.0 | 0.00 | 0.46 | 0.00 | 97 | 1012.3 |
| 20260906120519 | 21 | 0 | 0.0 | 0.0 | 0.00 | 0.46 | 0.00 | 97 | 1012.2 |
| 20260906120044 | 21 | 0 | 0.0 | 0.0 | 0.00 | 0.46 | 0.00 | 97 | 1012.2 |
| 20260906115526 | 21 | 0 | 0.0 | 0.0 | 0.00 | 0.46 | 0.00 | 97 | 1012.1 |
| 20260906115021 | 21 | 0 | 0.0 | 0.0 | 0.00 | 0.46 | 0.00 | 97 | 1012.1 |
| 20260906114548 | 21 | 0 | 0.0 | 0.0 | 0.00 | 0.46 | 0.00 | 97 | 1012.1 |
| 20260906114025 | 21 | 0 | 0.0 | 0.0 | 0.00 | 0.46 | 0.00 | 97 | 1012.0 |
| 20260906113520 | 21 | 0 | 0.0 | 0.0 | 0.00 | 0.46 | 0.00 | 97 | 1012.1 |
| 20260906113044 | 21 | 0 | 0.0 | 0.0 | 0.00 | 0.46 | 0.00 | 97 | 1012.2 |
| 20260906112526 | 21 | 0 | 0.0 | 0.0 | 0.00 | 0.46 | 0.00 | 97 | 1012.1 |
| 20260906112024 | 21 | 0 | 0.0 | 0.0 | 0.00 | 0.46 | 0.00 | 97 | 1012.0 |
| 20260906111558 | 21 | 0 | 0.0 | 0.0 | 0.00 | 0.46 | 0.00 | 97 | 1012.0 |
| 20260906111019 | 21 | 0 | 0.0 | 0.0 | 0.00 | 0.46 | 0.00 | 97 | 1012.0 |
| 20260906110521 | 21 | 0 | 0.0 | 0.0 | 0.00 | 0.46 | 0.00 | 97 | 1011.9 |
| 20260906110042 | 21 | 0 | 0.0 | 0.0 | 0.00 | 0.46 | 0.00 | 97 | 1011.9 |
| 20260906105524 | 21 | 0 | 0.0 | 0.0 | 0.00 | 0.46 | 0.00 | 97 | 1011.9 |
| 20260906105027 | 21 | 0 | 0.0 | 0.0 | 0.00 | 0.46 | 0.00 | 97 | 1011.8 |
| 20260906104548 | 21 | 0 | 0.0 | 0.0 | 0.00 | 0.46 | 0.00 | 97 | 1011.8 |
| 20260906104024 | 21 | 0 | 0.0 | 0.0 | 0.00 | 0.46 | 0.00 | 97 | 1011.9 |
| 20260906103528 | 21 | 0 | 0.0 | 0.0 | 0.00 | 0.46 | 0.00 | 97 | 1011.9 |
| 20260906103043 | 21 | 0 | 0.0 | 0.0 | 0.00 | 0.46 | 0.00 | 97 | 1011.9 |
| 20260906102519 | 21 | 0 | 0.0 | 0.0 | 0.00 | 0.46 | 0.00 | 97 | 1011.8 |
| 20260906102021 | 21 | 0 | 0.0 | 0.0 | 0.00 | 0.46 | 0.00 | 96 | 1011.8 |
| 20260906101542 | 21 | 0 | 0.0 | 0.0 | 0.00 | 0.46 | 0.00 | 97 | 1011.8 |
| 20260906101021 | 21 | 0 | 0.0 | 0.0 | 0.00 | 0.46 | 0.00 | 97 | 1011.8 |
| 20260906100521 | 21 | 0 | 0.0 | 0.0 | 0.00 | 0.46 | 0.00 | 96 | 1011.7 |
| 20260906100043 | 21 | 0 | 0.0 | 0.0 | 0.00 | 0.46 | 0.00 | 97 | 1011.8 |
| 20260906095519 | 21 | 0 | 0.0 | 0.0 | 0.00 | 0.46 | 0.00 | 96 | 1011.7 |
| 20260906095024 | 21 | 0 | 0.0 | 0.0 | 0.00 | 0.46 | 0.00 | 96 | 1011.8 |
| 20260906094547 | 21 | 0 | 0.0 | 0.0 | 0.00 | 0.46 | 0.00 | 96 | 1011.8 |
| 20260906094019 | 21 | 0 | 0.0 | 0.0 | 0.00 | 0.46 | 0.00 | 96 | 1011.8 |
| 20260906093519 | 21 | 0 | 0.0 | 0.0 | 0.00 | 0.46 | 0.00 | 96 | 1011.8 |
| 20260906093051 | 21 | 0 | 0.0 | 0.0 | 0.00 | 0.46 | 0.00 | 96 | 1011.7 |
| 20260906092521 | 21 | 0 | 0.0 | 0.0 | 0.00 | 0.46 | 0.00 | 96 | 1011.7 |
| 20260906092023 | 21 | 0 | 0.0 | 0.0 | 0.00 | 0.46 | 0.00 | 96 | 1011.8 |
| 20260906091543 | 21 | 0 | 0.0 | 0.0 | 0.00 | 0.46 | 0.00 | 96 | 1011.7 |
| 20260906091025 | 21 | 0 | 0.0 | 0.0 | 0.00 | 0.46 | 0.00 | 96 | 1011.6 |
| 20260906090525 | 21 | 0 | 0.0 | 0.0 | 0.00 | 0.46 | 0.00 | 96 | 1011.6 |
| 20260906090045 | 21 | 0 | 0.0 | 0.0 | 0.00 | 0.46 | 0.00 | 96 | 1011.6 |
| 20260906085524 | 21 | 0 | 0.0 | 0.0 | 0.00 | 0.46 | 0.00 | 96 | 1011.5 |
| 20260906085020 | 21 | 0 | 0.0 | 0.0 | 0.00 | 0.46 | 0.00 | 96 | 1011.5 |
| 20260906084554 | 21 | 0 | 0.0 | 0.0 | 0.00 | 0.46 | 0.00 | 96 | 1011.5 |
| 20260906084024 | 21 | 0 | 0.0 | 0.0 | 0.00 | 0.46 | 0.00 | 96 | 1011.5 |
| 20260906083524 | 21 | 0 | 0.0 | 0.0 | 0.00 | 0.46 | 0.00 | 96 | 1011.4 |
| 20260906083043 | 21 | 0 | 0.0 | 0.0 | 0.00 | 0.46 | 0.00 | 96 | 1011.4 |
| 20260906082522 | 21 | 0 | 0.0 | 0.0 | 0.00 | 0.46 | 0.00 | 96 | 1011.4 |
| 20260906082023 | 21 | 0 | 0.0 | 0.0 | 0.00 | 0.46 | 0.00 | 96 | 1011.5 |
| 20260906081551 | 21 | 0 | 0.0 | 0.0 | 0.00 | 0.46 | 0.00 | 96 | 1011.5 |
| 20260906081023 | 21 | 0 | 0.0 | 0.0 | 0.00 | 0.46 | 0.00 | 96 | 1011.4 |
| 20260906080525 | 21 | 0 | 0.0 | 0.0 | 0.00 | 0.46 | 0.00 | 96 | 1011.4 |
| 20260906080042 | 21 | 0 | 0.0 | 0.0 | 0.00 | 0.46 | 0.00 | 96 | 1011.5 |
| 20260906075523 | 21 | 0 | 0.0 | 0.0 | 0.00 | 0.46 | 0.00 | 96 | 1011.4 |
| 20260906075020 | 21 | 0 | 0.0 | 0.0 | 0.00 | 0.46 | 0.00 | 96 | 1011.5 |
| 20260906074548 | 21 | 0 | 0.0 | 0.0 | 0.00 | 0.46 | 0.00 | 96 | 1011.6 |
| 20260906074023 | 21 | 0 | 0.0 | 0.0 | 0.00 | 0.46 | 0.00 | 96 | 1011.5 |
| 20260906073523 | 21 | 0 | 0.0 | 0.0 | 0.00 | 0.46 | 0.00 | 96 | 1011.5 |
| 20260906073054 | 21 | 0 | 0.0 | 0.0 | 0.00 | 0.46 | 0.00 | 96 | 1011.5 |
| 20260906072527 | 21 | 0 | 0.0 | 0.0 | 0.00 | 0.46 | 0.00 | 96 | 1011.5 |
| 20260906072024 | 21 | 0 | 0.0 | 0.0 | 0.00 | 0.46 | 0.00 | 96 | 1011.4 |
| 20260906071544 | 21 | 0 | 0.0 | 0.0 | 0.00 | 0.46 | 0.00 | 96 | 1011.3 |
| 20260906071022 | 22 | 0 | 0.0 | 0.0 | 0.00 | 0.46 | 0.00 | 96 | 1011.3 |
| 20260906070523 | 22 | 0 | 0.0 | 0.0 | 0.00 | 0.46 | 0.00 | 96 | 1011.3 |
| 20260906070056 | 22 | 0 | 0.0 | 0.0 | 0.00 | 0.46 | 0.00 | 96 | 1011.4 |
| 20260906065524 | 22 | 0 | 0.0 | 0.0 | 0.00 | 0.46 | 0.00 | 96 | 1011.4 |
| 20260906065023 | 22 | 0 | 0.0 | 0.0 | 0.00 | 0.46 | 0.00 | 96 | 1011.4 |
| 20260906064543 | 22 | 0 | 0.0 | 0.0 | 0.00 | 0.46 | 0.00 | 96 | 1011.3 |
| 20260906064028 | 22 | 0 | 0.0 | 0.0 | 0.00 | 0.46 | 0.00 | 96 | 1011.5 |
| 20260906063527 | 22 | 0 | 0.0 | 0.0 | 0.00 | 0.46 | 0.00 | 96 | 1011.7 |
| 20260906063044 | 22 | 0 | 0.0 | 0.0 | 0.00 | 0.46 | 0.00 | 96 | 1011.7 |
| 20260906062525 | 22 | 0 | 0.0 | 0.0 | 0.00 | 0.46 | 0.00 | 96 | 1011.8 |
| 20260906062024 | 22 | 0 | 0.0 | 0.0 | 0.00 | 0.46 | 0.00 | 96 | 1011.8 |
| 20260906061553 | 22 | 0 | 0.0 | 0.0 | 0.00 | 0.46 | 0.00 | 96 | 1011.8 |
| 20260906061038 | 22 | 0 | 0.0 | 0.0 | 0.00 | 0.46 | 0.00 | 96 | 1012.0 |
| 20260906060523 | 22 | 0 | 0.0 | 0.0 | 0.00 | 0.46 | 0.00 | 96 | 1012.0 |
| 20260906060048 | 22 | 0 | 0.0 | 0.0 | 0.00 | 0.46 | 0.00 | 96 | 1012.0 |
| 20260906055521 | 22 | 0 | 0.0 | 0.0 | 0.00 | 0.46 | 0.00 | 96 | 1011.9 |
| 20260906055024 | 22 | 0 | 0.0 | 0.0 | 0.00 | 0.46 | 0.00 | 96 | 1012.0 |
| 20260906054544 | 22 | 0 | 0.0 | 0.0 | 0.00 | 0.46 | 0.00 | 96 | 1012.0 |
| 20260906054023 | 22 | 0 | 0.0 | 0.0 | 0.00 | 0.46 | 0.00 | 96 | 1012.0 |
| 20260906053524 | 22 | 0 | 0.0 | 0.0 | 0.00 | 0.46 | 0.00 | 96 | 1012.2 |
| 20260906053045 | 22 | 0 | 0.0 | 0.0 | 0.00 | 0.46 | 0.00 | 96 | 1012.1 |
| 20260906052524 | 22 | 0 | 0.0 | 0.0 | 0.00 | 0.46 | 0.00 | 96 | 1012.2 |
| 20260906052024 | 22 | 0 | 0.0 | 0.0 | 0.00 | 0.46 | 0.00 | 96 | 1012.3 |
| 20260906051545 | 22 | 0 | 0.0 | 0.0 | 0.00 | 0.46 | 0.00 | 96 | 1012.3 |
| 20260906051025 | 22 | 0 | 0.0 | 0.0 | 0.00 | 0.46 | 0.00 | 96 | 1012.3 |
| 20260906050523 | 22 | 0 | 0.0 | 0.0 | 0.00 | 0.46 | 0.00 | 96 | 1012.3 |
| 20260906050105 | 22 | 0 | 0.0 | 0.0 | 0.00 | 0.46 | 0.00 | 96 | 1012.3 |
| 20260906045523 | 22 | 0 | 0.0 | 0.0 | 0.00 | 0.46 | 0.00 | 96 | 1012.4 |
| 20260906045021 | 22 | 0 | 0.0 | 0.0 | 0.00 | 0.46 | 0.00 | 96 | 1012.5 |
| 20260906044542 | 22 | 0 | 0.0 | 0.0 | 0.00 | 0.46 | 0.00 | 96 | 1012.6 |
| 20260906044022 | 22 | 0 | 0.0 | 0.0 | 0.00 | 0.46 | 0.00 | 96 | 1012.6 |
| 20260906043523 | 22 | 0 | 0.0 | 0.0 | 0.00 | 0.46 | 0.00 | 96 | 1012.7 |
| 20260906043101 | 22 | 0 | 0.0 | 0.0 | 0.00 | 0.46 | 0.00 | 96 | 1012.6 |
| 20260906042522 | 22 | 0 | 0.0 | 0.0 | 0.00 | 0.46 | 0.00 | 96 | 1012.7 |
| 20260906042021 | 22 | 0 | 0.0 | 0.0 | 0.00 | 0.46 | 0.00 | 96 | 1012.6 |
| 20260906041542 | 22 | 0 | 0.0 | 0.0 | 0.00 | 0.46 | 0.00 | 95 | 1012.7 |
| 20260906041022 | 22 | 0 | 0.0 | 0.0 | 0.00 | 0.46 | 0.00 | 95 | 1012.5 |
| 20260906040521 | 22 | 0 | 0.0 | 0.0 | 0.00 | 0.46 | 0.00 | 95 | 1012.3 |
| 20260906040104 | 22 | 0 | 0.0 | 0.0 | 0.00 | 0.46 | 0.00 | 95 | 1012.5 |
| 20260906035525 | 22 | 0 | 0.0 | 0.0 | 0.00 | 0.46 | 0.46 | 95 | 1012.5 |
| 20260906035025 | 22 | 0 | 0.0 | 0.0 | 0.00 | 0.46 | 0.46 | 95 | 1012.6 |
| 20260906034542 | 22 | 0 | 0.0 | 0.0 | 0.00 | 0.46 | 0.46 | 95 | 1012.7 |
| 20260906034023 | 22 | 0 | 0.0 | 0.0 | 0.00 | 0.46 | 0.46 | 95 | 1012.6 |
| 20260906033523 | 22 | 0 | 0.0 | 0.0 | 0.00 | 0.46 | 0.46 | 95 | 1012.6 |
| 20260906033047 | 22 | 0 | 0.0 | 0.0 | 0.00 | 0.46 | 0.46 | 95 | 1012.6 |
| 20260906032522 | 22 | 0 | 0.0 | 0.0 | 0.00 | 0.46 | 0.46 | 95 | 1012.8 |
| 20260906032023 | 22 | 0 | 0.0 | 0.0 | 0.00 | 0.46 | 0.46 | 95 | 1012.7 |
| 20260906031544 | 22 | 0 | 0.0 | 0.0 | 0.00 | 0.46 | 0.46 | 95 | 1012.8 |
| 20260906031021 | 22 | 0 | 0.0 | 0.0 | 0.00 | 0.46 | 0.46 | 95 | 1012.7 |
| 20260906030522 | 22 | 0 | 0.0 | 0.0 | 0.00 | 0.46 | 0.46 | 95 | 1012.7 |
| 20260906030043 | 22 | 0 | 0.0 | 0.0 | 0.00 | 0.46 | 0.46 | 95 | 1012.7 |
| 20260906025525 | 22 | 0 | 0.0 | 0.0 | 0.00 | 0.46 | 0.46 | 95 | 1012.7 |
| 20260906025025 | 22 | 0 | 0.0 | 0.0 | 0.00 | 0.46 | 0.46 | 95 | 1012.7 |
| 20260906024546 | 22 | 0 | 0.0 | 0.0 | 0.00 | 0.46 | 0.46 | 95 | 1012.8 |
| 20260906024023 | 22 | 0 | 0.0 | 0.0 | 0.00 | 0.46 | 0.46 | 95 | 1012.9 |
| 20260906023524 | 22 | 0 | 0.0 | 0.0 | 0.00 | 0.46 | 0.46 | 95 | 1012.8 |
| 20260906023058 | 22 | 0 | 0.0 | 0.0 | 0.00 | 0.46 | 0.46 | 95 | 1012.7 |
| 20260906022525 | 22 | 0 | 0.0 | 0.0 | 0.00 | 0.46 | 0.46 | 95 | 1012.8 |
| 20260906022024 | 22 | 0 | 0.0 | 0.0 | 0.00 | 0.46 | 0.46 | 95 | 1012.8 |
| 20260906021544 | 22 | 0 | 0.0 | 0.0 | 0.00 | 0.46 | 0.46 | 95 | 1012.8 |
| 20260906021024 | 22 | 0 | 0.0 | 0.0 | 0.00 | 0.46 | 0.46 | 95 | 1012.7 |
| 20260906020524 | 22 | 0 | 0.0 | 0.0 | 0.00 | 0.46 | 0.46 | 95 | 1012.7 |
| 20260906020047 | 22 | 0 | 0.0 | 0.0 | 0.00 | 0.46 | 0.46 | 95 | 1012.6 |
| 20260906015522 | 22 | 0 | 0.0 | 0.0 | 0.00 | 0.46 | 0.46 | 95 | 1012.5 |
| 20260906015021 | 22 | 0 | 0.0 | 0.0 | 0.00 | 0.46 | 0.46 | 94 | 1012.4 |
| 20260906014555 | 22 | 0 | 0.0 | 0.0 | 0.00 | 0.46 | 0.46 | 94 | 1012.5 |
| 20260906014024 | 22 | 0 | 0.0 | 0.0 | 0.00 | 0.46 | 0.46 | 94 | 1012.3 |
| 20260906013524 | 22 | 0 | 0.0 | 0.0 | 0.00 | 0.46 | 0.46 | 94 | 1012.2 |
| 20260906013042 | 22 | 0 | 0.0 | 0.0 | 0.00 | 0.46 | 0.46 | 94 | 1012.3 |
| 20260906012524 | 22 | 0 | 0.0 | 0.0 | 0.00 | 0.46 | 0.46 | 94 | 1011.9 |
| 20260906012021 | 22 | 0 | 0.0 | 0.0 | 0.00 | 0.46 | 0.46 | 94 | 1011.9 |
| 20260906011552 | 22 | 0 | 0.0 | 0.0 | 0.00 | 0.46 | 0.46 | 94 | 1011.9 |
| 20260906011023 | 22 | 0 | 0.0 | 0.0 | 0.00 | 0.46 | 0.46 | 94 | 1012.0 |
| 20260906010523 | 22 | 0 | 0.0 | 0.0 | 0.00 | 0.46 | 0.46 | 94 | 1011.9 |
| 20260906010047 | 22 | 0 | 0.0 | 0.0 | 0.00 | 0.46 | 0.46 | 94 | 1011.7 |
| 20260906005527 | 22 | 0 | 0.0 | 0.0 | 0.00 | 0.46 | 0.46 | 94 | 1011.9 |
| 20260906005024 | 22 | 0 | 0.0 | 0.0 | 0.00 | 0.46 | 0.46 | 94 | 1011.8 |
| 20260906004544 | 22 | 0 | 0.0 | 0.0 | 0.00 | 0.46 | 0.46 | 94 | 1012.0 |
| 20260906004031 | 22 | 0 | 0.0 | 0.0 | 0.00 | 0.46 | 0.46 | 94 | 1012.0 |
| 20260906003526 | 22 | 0 | 0.0 | 0.0 | 0.00 | 0.46 | 0.46 | 94 | 1011.9 |
| 20260906003051 | 22 | 0 | 0.0 | 0.0 | 0.00 | 0.46 | 0.46 | 93 | 1012.1 |
| 20260906002522 | 23 | 0 | 0.0 | 0.0 | 0.00 | 0.46 | 0.46 | 93 | 1012.6 |
| 20260906002025 | 23 | 0 | 0.0 | 0.0 | 0.03 | 0.46 | 0.46 | 93 | 1012.6 |
| 20260906001544 | 23 | 0 | 0.0 | 0.0 | 0.03 | 0.46 | 0.46 | 93 | 1012.5 |
| 20260906001019 | 23 | 0 | 0.0 | 0.0 | 0.03 | 0.46 | 0.46 | 93 | 1012.8 |
| 20260906000520 | 23 | 0 | 0.0 | 0.0 | 0.03 | 0.46 | 0.46 | 93 | 1012.8 |
| 20260906000052 | 23 | 0 | 0.0 | 0.0 | 0.03 | 0.46 | 0.46 | 93 | 1012.6 |
| 20260905235527 | 23 | 0 | 0.0 | 0.0 | 0.03 | 0.46 | 0.46 | 92 | 1012.5 |
| 20260905235024 | 23 | 0 | 0.0 | 0.0 | 0.05 | 0.46 | 0.46 | 92 | 1012.9 |
| 20260905234553 | 23 | 0 | 0.0 | 0.0 | 0.05 | 0.46 | 0.46 | 92 | 1012.7 |
| 20260905234023 | 23 | 0 | 0.0 | 0.0 | 0.05 | 0.46 | 0.46 | 92 | 1012.9 |
| 20260905233523 | 23 | 0 | 0.0 | 0.0 | 0.05 | 0.46 | 0.46 | 91 | 1012.8 |
| 20260905233043 | 23 | 0 | 0.0 | 0.0 | 0.05 | 0.46 | 0.46 | 91 | 1012.2 |
| 20260905232522 | 23 | 0 | 0.0 | 0.0 | 0.05 | 0.46 | 0.46 | 90 | 1012.0 |
| 20260905232022 | 23 | 0 | 0.0 | 0.0 | 0.03 | 0.43 | 0.43 | 90 | 1011.6 |